Regional Weather Roundup
Issued by NWS

Home | Current Version | Previous Version | Graphics & Text | Print | Product List | Glossary On
Versions: 1 2 3 4 5 6 7 8 9 10 11 12 13 14 15 16 17 18 19 20 21 22 23 24 25 26 27 28 29 30 31 32 33 34 35 36 37 38 39 40 41 42 43 44 45 46 47 48 49 50
712
ASUS43 KIND 301209
RWRIN

WEATHER ROUNDUP FOR INDIANA
NATIONAL WEATHER SERVICE INDIANAPOLIS IN
800 AM EDT SAT APR 30 2016

NOTE: "FAIR" INDICATES FEW OR NO CLOUDS BELOW 12,000 FEET WITH NO
SIGNIFICANT WEATHER AND/OR OBSTRUCTIONS TO VISIBILITY.

* - STATION DOES NOT REPORT WEATHER SUCH AS PRECIPITATION OR FOG.

+ - STATION NOT QUALITY CONTROLLED BY THE NATIONAL WEATHER SERVICE.
    USE DATA WITH CAUTION...ESPECIALLY DEWPOINT AND RELATIVE
    HUMIDITY OBSERVATIONS.

INZ001>003-010>013-019-020-301300-
NORTHWEST INDIANA

CITY           SKY/WX    TMP DP  RH WIND       PRES   REMARKS
GARY /AIRPORT/ CLOUDY    48  48 100 E9        30.08R
KNOX *+        CLOUDY    45  36  70 E8        30.08R
LA PORTE +     PTSUNNY   47  41  80 E10       30.09R
MICHIGAN CITY+ PTSUNNY   45  41  87 SE9       30.09R
MONTICELLO +   CLOUDY    48  42  79 E6        30.03F
6HR MIN TEMP:  47; 6HR MAX TEMP:  49;

RENSSELAER +   PTSUNNY   46  45  93 E13       30.04F FOG
VALPARAISO     PTSUNNY   45  41  86 E12       30.07R
6HR MIN TEMP:  40; 6HR MAX TEMP:  45;


$$

LMZ046-743>745-301300-
SOUTHERN LAKE MICHIGAN

STATION/POSITION TIME  TEMP    WIND        PRES    WAVE
                       AIR SEA DIR/SP/G            HT
                 (UTC) (F)     (DEG/KT/KT) (MB)    (FT)
BURNS HARBOR     1103   47     100/  8/ 12 1018.3S

$$

INZ004-005-014>016-021>024-301300-
NORTH CENTRAL INDIANA

CITY           SKY/WX    TMP DP  RH WIND       PRES   REMARKS
ELKHART        CLOUDY    46  39  76 E8        30.11
GOSHEN         PTSUNNY   45  35  68 SE8       30.10R
6HR MIN TEMP:  42; 6HR MAX TEMP:  47;

LOGANSPORT +   CLOUDY    46  43  87 E8        30.06S
PERU/GRISSOM   CLOUDY    47  45  91 E13       30.03F
6HR MIN TEMP:  47; 6HR MAX TEMP:  50;

ROCHESTER +    PTSUNNY   46  43  87 E10       30.08R
SOUTH BEND     CLOUDY    45  34  65 SE13      30.10R
6HR MIN TEMP:  44; 6HR MAX TEMP:  46;

WARSAW +       CLOUDY    43  36  75 E12       30.09S

$$

INZ006>009-017-018-025>027-301300-
NORTHEAST INDIANA

CITY           SKY/WX    TMP DP  RH WIND       PRES   REMARKS
ANGOLA *+      SUNNY     43  30  61 E9        30.10S
AUBURN +       PTSUNNY   43  34  70 E6        30.13R
FORT WAYNE     CLOUDY    43  38  82 E12       30.10S
6HR MIN TEMP:  42; 6HR MAX TEMP:  46;

HUNTINGTON +   CLOUDY   N/A N/A N/A E8        30.08F

$$

INZ028-029-035-036-043>045-051>053-301300-
WEST CENTRAL INDIANA

CITY           SKY/WX    TMP DP  RH WIND       PRES   REMARKS
CRAWFORDSVL +  DRIZZLE   49  49 100 E13       29.99S
6HR MIN TEMP:  49; 6HR MAX TEMP:  50; 6HR PCP:  0.01;

GREENCASTLE +  LGT RAIN  50  50 100 E10       29.98F
LAFAYETTE      LGT RAIN  50  46  86 E14       30.01F
6HR MIN TEMP:  48; 6HR MAX TEMP:  50; 6HR PCP: TRACE;

TERRE HAUTE    LGT RAIN  53  51  93 E8        29.96R FOG
6HR MIN TEMP:  53; 6HR MAX TEMP:  57; 6HR PCP:  0.32;


$$

INZ030>032-037>040-046>048-054>057-064-065-301300-
CENTRAL INDIANA

CITY           SKY/WX    TMP DP  RH WIND       PRES   REMARKS
CP ATTERBURY + LGT RAIN  52  50  93 E6        30.00S
COLUMBUS       LGT RAIN  52  52 100 NE6       30.00S FOG
FISHERS *+     CLOUDY    50  46  87 E5        30.03R
FRANKFORT +      N/A     50  39  66 E9        30.03S
6HR MIN TEMP:  50; 6HR MAX TEMP:  50;

GREENWOOD *+   CLOUDY    52  48  87 E7        30.01S
INDIANAPOLIS   LGT RAIN  52  47  83 E14       29.99S
6HR MIN TEMP:  52; 6HR MAX TEMP:  53; 6HR PCP: TRACE;

-EAGLE CREEK   CLOUDY    52  46  80 E9        29.99F
6HR MIN TEMP:  52; 6HR MAX TEMP:  53; 6HR PCP: TRACE;

KOKOMO *+      CLOUDY    46  43  87 E12       30.04F
6HR MIN TEMP:  46; 6HR MAX TEMP:  48;

MARION +       CLOUDY    46  42  85 E12       30.06F
SHELBYVILLE    CLOUDY    53  47  79 E13       29.99F
6HR MIN TEMP:  53; 6HR MAX TEMP:  54; 6HR PCP:  0.01;

ZIONSVILLE +   CLOUDY    50  44  82 E8        30.03R
6HR MIN TEMP:  49; 6HR MAX TEMP:  50;


$$

INZ033-034-041-042-049-050-058-059-301300-
EAST CENTRAL INDIANA

CITY           SKY/WX    TMP DP  RH WIND       PRES   REMARKS
MUNCIE         CLOUDY    49  43  80 E10       30.06R
6HR MIN TEMP:  49; 6HR MAX TEMP:  51;


$$

INZ060-061-067>069-081>083-085>088-301300-
SOUTHWEST INDIANA

CITY           SKY/WX    TMP DP  RH WIND       PRES   REMARKS
EVANSVILLE     LGT RAIN  58  55  90 E3        29.93R
6HR MIN TEMP:  58; 6HR MAX TEMP:  62; 6HR PCP:  0.05;

HUNTINGBURG *+ CLOUDY    59  52  77 SE5       29.95R
6HR MIN TEMP:  59; 6HR MAX TEMP:  61;

WASHINGTON +   LGT RAIN  57  56  97 E9        29.94R
6HR MIN TEMP:  57; 6HR MAX TEMP:  60; 6HR PCP:  0.01;


$$

INZ062-063-066-070>080-084-089>092-301300-
SOUTH CENTRAL AND SOUTHEAST INDIANA

CITY           SKY/WX    TMP DP  RH WIND       PRES   REMARKS
BEDFORD +      CLOUDY    55  55 100 E8        29.95R
BLOOMINGTON    LGT RAIN  54  51  90 E8        29.96R FOG
6HR MIN TEMP:  54; 6HR MAX TEMP:  59; 6HR PCP:  0.06;

MADISON *+     CLOUDY    54  50  87 E7G16     30.00S
NORTH VERNON + CLOUDY   N/A N/A N/A CALM      30.00R
SEYMOUR +      CLOUDY    57  52  82 E8        29.98S

$$





USA.gov is the U.S. government's official web portal to all federal, state and local government web resources and services.